Weather History for KDIK - January, 2015

Change the Weather History Date:

Sunday, January 18, 2015

  Actual Average Record
Temperature  
Mean Temperature 32 °F 16 °F  
Max Temperature 40 °F 26 °F 55 °F (1908)
Min Temperature 23 °F 6 °F -41 °F (1943)
Degree Days  
Heating Degree Days 33 49  
Month to date heating degree days 935 882  
Since 1 July heating degree days 4385 4419  
Cooling Degree Days 0 0  
Month to date cooling degree days 0 0  
Year to date cooling degree days 0 0  
Moisture  
Dew Point 24 °F    
Average Humidity 68    
Maximum Humidity 82    
Minimum Humidity 54    
Precipitation  
Precipitation 0.00 in 0.01 in 0.12 in (2006)
Month to date precipitation 0.05 0.19  
Year to date precipitation 0.05 0.19  
Sea Level Pressure  
Sea Level Pressure 29.84 in    
Wind  
Wind Speed 10 mph (WSW)    
Max Wind Speed 17 mph    
Max Gust Speed 21 mph    
Visibility 10 miles    
Events      
T = Trace of Precipitation, MM = Missing Value Source: NWS Daily Summary

Daily Weather History Graph

Daily Weather History Graph

Search for Another Location

Airport or City:

Trip Planner

Search our weather history database for the weather conditions in past years. The results will help you decide how hot, cold, wet, or windy it might be!

Date:

Astronomy

Jan. 18, 2015 Rise Set
Actual Time 7:29 AM MST 4:33 PM MST
Civil Twilight 6:56 AM MST 5:07 PM MST
Nautical Twilight 6:18 AM MST 5:45 PM MST
Astronomical Twilight 5:42 AM MST 6:21 PM MST
Moon 5:27 AM MST (1/18) 3:00 PM MST (1/18)
Length of Visible Light 10h 11m
Length of Day
9h 03m
Waning Crescent, 4% of the Moon is Illuminated
Jan 18
Waning Crescent
Jan 20
New
Jan 26
First Quarter
Feb 3
Full
Feb 11
Last Quarter

Hourly Weather History & Observations

Time (MST) Temp. Windchill Dew Point Humidity Pressure Visibility Wind Dir Wind Speed Gust Speed Precip Events Conditions
12:56 AM 28.0 °F 19.3 °F 19.0 °F 69% 29.83 in 10.0 mi WSW 9.2 mph - N/A   Clear
1:56 AM 28.9 °F 18.6 °F 19.0 °F 67% 29.82 in 10.0 mi WSW 12.7 mph - N/A   Clear
2:56 AM 30.9 °F 20.7 °F 19.9 °F 64% 29.83 in 10.0 mi West 13.8 mph - N/A   Clear
3:56 AM 28.0 °F 17.5 °F 18.0 °F 66% 29.83 in 10.0 mi West 12.7 mph - N/A   Clear
4:56 AM 26.1 °F 16.2 °F 17.1 °F 69% 29.85 in 10.0 mi WNW 10.4 mph - N/A   Clear
5:56 AM 25.0 °F 14.8 °F 17.1 °F 72% 29.86 in 10.0 mi West 10.4 mph - N/A   Clear
6:56 AM 26.1 °F 14.5 °F 17.1 °F 69% 29.87 in 10.0 mi West 13.8 mph - N/A   Clear
7:56 AM 25.0 °F 19.3 °F 16.0 °F 69% 29.89 in 10.0 mi WNW 4.6 mph - N/A   Clear
8:56 AM 26.1 °F - 18.0 °F 71% 29.90 in 10.0 mi Calm Calm - N/A   Clear
9:56 AM 34.0 °F 26.6 °F 21.9 °F 61% 29.90 in 10.0 mi West 9.2 mph - N/A   Clear
10:56 AM 37.0 °F 31.6 °F 23.0 °F 57% 29.88 in 10.0 mi West 6.9 mph - N/A   Clear
11:56 AM 37.0 °F 30.4 °F 25.0 °F 62% 29.88 in 10.0 mi SW 9.2 mph - N/A   Scattered Clouds
12:56 PM 37.9 °F 30.9 °F 25.0 °F 60% 29.86 in 10.0 mi WSW 10.4 mph - N/A   Overcast
1:56 PM 37.9 °F 32.7 °F 26.1 °F 62% 29.84 in 10.0 mi SW 6.9 mph - N/A   Overcast
2:56 PM 39.9 °F 36.7 °F 28.0 °F 63% 29.83 in 10.0 mi WSW 4.6 mph - N/A   Overcast
3:56 PM 37.9 °F 34.4 °F 28.9 °F 70% 29.84 in 10.0 mi SSW 4.6 mph - N/A   Overcast
4:56 PM 36.0 °F 29.0 °F 28.9 °F 76% 29.83 in 10.0 mi SW 9.2 mph - N/A   Clear
5:56 PM 36.0 °F 29.0 °F 28.9 °F 76% 29.81 in 10.0 mi South 9.2 mph - N/A   Mostly Cloudy
6:56 PM 36.0 °F 28.5 °F 30.0 °F 79% 29.81 in 10.0 mi SSW 10.4 mph - N/A   Mostly Cloudy
7:56 PM 37.0 °F 29.3 °F 30.0 °F 76% 29.81 in 10.0 mi WSW 11.5 mph - N/A   Clear
8:56 PM 37.0 °F 28.9 °F 30.0 °F 76% 29.81 in 10.0 mi WSW 12.7 mph - N/A   Clear
9:56 PM 37.0 °F 28.9 °F 28.0 °F 70% 29.80 in 10.0 mi West 12.7 mph - N/A   Clear
10:56 PM 34.0 °F 25.5 °F 27.0 °F 75% 29.81 in 10.0 mi WSW 11.5 mph - N/A   Clear
11:56 PM 36.0 °F 26.7 °F 26.1 °F 67% 29.80 in 10.0 mi West 15.0 mph - N/A   Clear